Time,TemperatureF,DewpointF,PressureIn,WindDirection,WindDirectionDegrees,WindSpeedMPH,WindSpeedGustMPH,Humidity,HourlyPrecipIn,Conditions,Clouds,dailyrainin,SoftwareType,DateUTC
2013-04-25 00:15:00,45.0,33.2,29.49,WSW,257,15.0,15.0,63,0.00,,,0.00,Wunderground v.1.12,2013-04-25 04:15:00,
2013-04-25 00:45:00,42.7,30.6,29.54,WNW,284,20.0,20.0,62,0.00,,,0.00,Wunderground v.1.12,2013-04-25 04:45:00,
2013-04-25 01:15:00,40.5,29.7,29.57,WNW,290,14.0,14.0,65,0.00,,,0.00,Wunderground v.1.12,2013-04-25 05:15:00,
2013-04-25 01:45:00,40.3,29.5,29.60,WSW,256,13.0,13.0,65,0.00,,,0.00,Wunderground v.1.12,2013-04-25 05:45:00,
2013-04-25 02:15:00,39.7,29.6,29.63,West,274,11.0,11.0,67,0.00,,,0.00,Wunderground v.1.12,2013-04-25 06:15:00,
2013-04-25 02:45:00,39.0,29.0,29.65,West,268,9.0,9.0,67,0.00,,,0.00,Wunderground v.1.12,2013-04-25 06:45:00,
2013-04-25 03:15:00,38.7,28.7,29.67,West,265,13.0,13.0,67,0.00,,,0.00,Wunderground v.1.12,2013-04-25 07:15:00,
2013-04-25 03:45:00,38.0,30.8,29.72,West,270,11.0,22.0,75,0.01,,,0.01,Wunderground v.1.12,2013-04-25 07:45:00,
2013-04-25 04:15:00,37.7,30.5,29.75,West,270,9.0,19.0,75,0.00,,,0.01,Wunderground v.1.12,2013-04-25 08:15:00,
2013-04-25 04:45:00,37.5,29.6,29.77,West,270,9.0,18.0,73,0.00,,,0.01,Wunderground v.1.12,2013-04-25 08:45:00,
2013-04-25 05:15:00,37.0,28.5,29.78,West,270,8.0,16.0,71,0.00,,,0.01,Wunderground v.1.12,2013-04-25 09:15:00,
2013-04-25 05:45:00,36.3,28.5,29.79,WNW,293,6.0,15.0,73,0.00,,,0.01,Wunderground v.1.12,2013-04-25 09:45:00,
2013-04-25 06:15:00,36.2,28.7,29.81,WNW,293,5.0,12.0,74,0.00,,,0.01,Wunderground v.1.12,2013-04-25 10:15:00,
2013-04-25 06:45:00,37.3,29.1,29.84,West,270,5.0,12.0,72,0.00,,,0.01,Wunderground v.1.12,2013-04-25 10:45:00,
2013-04-25 07:15:00,37.9,28.3,29.86,West,270,6.0,14.0,68,0.00,,,0.01,Wunderground v.1.12,2013-04-25 11:15:00,
2013-04-25 07:45:00,38.7,28.3,29.89,WNW,293,6.0,14.0,66,0.00,,,0.01,Wunderground v.1.12,2013-04-25 11:45:00,
2013-04-25 08:15:00,39.2,28.8,29.91,West,270,6.0,15.0,66,0.00,,,0.01,Wunderground v.1.12,2013-04-25 12:15:00,
2013-04-25 08:45:00,40.6,27.8,29.92,West,270,10.0,19.0,60,0.00,,,0.01,Wunderground v.1.12,2013-04-25 12:45:00,
2013-04-25 09:15:00,41.5,27.4,29.93,West,270,8.0,19.0,57,0.00,,,0.01,Wunderground v.1.12,2013-04-25 13:15:00,
2013-04-25 09:45:00,42.5,26.1,29.94,WNW,293,7.0,16.0,52,0.00,,,0.01,Wunderground v.1.12,2013-04-25 13:45:00,
2013-04-25 10:15:00,43.5,25.6,29.95,West,270,6.0,15.0,49,0.00,,,0.01,Wunderground v.1.12,2013-04-25 14:15:00,
2013-04-25 10:45:00,44.1,26.1,29.95,WNW,293,6.0,14.0,49,0.00,,,0.01,Wunderground v.1.12,2013-04-25 14:45:00,
2013-04-25 11:15:00,46.9,27.2,29.95,West,270,5.0,14.0,46,0.00,,,0.01,Wunderground v.1.12,2013-04-25 15:15:00,
2013-04-25 11:45:00,49.6,28.6,29.96,West,270,6.0,15.0,44,0.00,,,0.01,Wunderground v.1.12,2013-04-25 15:45:00,
2013-04-25 12:15:00,49.9,27.7,29.95,West,270,5.0,16.0,42,0.00,,,0.01,Wunderground v.1.12,2013-04-25 16:15:00,
2013-04-25 13:15:00,50.4,27.0,29.95,WNW,293,4.0,10.0,40,0.00,,,0.01,Wunderground v.1.12,2013-04-25 17:15:00,
2013-04-25 13:45:00,51.2,27.7,29.94,WNW,293,2.0,10.0,40,0.00,,,0.01,Wunderground v.1.12,2013-04-25 17:45:00,
2013-04-25 14:15:00,53.7,28.7,29.94,West,270,3.0,11.0,38,0.00,,,0.01,Wunderground v.1.12,2013-04-25 18:15:00,
2013-04-25 14:45:00,54.0,29.6,29.67,SW,228,2.0,23.0,39,0.00,,,0.00,Wunderground v.1.12,2013-04-25 18:45:00,
2013-04-25 15:15:00,54.5,28.7,29.67,SSW,195,0.0,0.0,37,0.00,,,0.00,Wunderground v.1.12,2013-04-25 19:15:00,
2013-04-25 15:45:00,58.5,31.6,29.67,West,260,8.0,8.0,36,0.00,,,0.00,Wunderground v.1.12,2013-04-25 19:45:00,
2013-04-25 16:15:00,54.8,30.3,29.66,SSW,205,2.0,2.0,39,0.00,,,0.00,Wunderground v.1.12,2013-04-25 20:15:00,
2013-04-25 16:45:00,55.6,27.6,29.66,West,268,2.0,2.0,34,0.00,,,0.00,Wunderground v.1.12,2013-04-25 20:45:00,
2013-04-25 17:15:00,53.7,28.0,29.66,SSW,194,0.0,0.0,37,0.00,,,0.00,Wunderground v.1.12,2013-04-25 21:15:00,
2013-04-25 17:45:00,53.7,29.9,29.67,South,189,3.0,3.0,40,0.00,,,0.00,Wunderground v.1.12,2013-04-25 21:45:00,
2013-04-25 18:15:00,52.5,29.5,29.68,SW,229,0.0,0.0,41,0.00,,,0.00,Wunderground v.1.12,2013-04-25 22:15:00,
2013-04-25 18:45:00,53.7,28.7,29.69,WSW,257,3.0,3.0,38,0.00,,,0.00,Wunderground v.1.12,2013-04-25 22:45:00,
2013-04-25 19:15:00,49.6,28.0,29.71,West,263,3.0,3.0,43,0.00,,,0.00,Wunderground v.1.12,2013-04-25 23:15:00,
2013-04-25 19:45:00,46.7,27.5,29.72,WSW,258,0.0,0.0,47,0.00,,,0.00,Wunderground v.1.12,2013-04-25 23:45:00,
2013-04-25 20:15:00,43.7,25.8,29.73,West,259,3.0,3.0,49,0.00,,,0.00,Wunderground v.1.12,2013-04-26 00:15:00,
2013-04-25 20:45:00,42.1,24.3,29.73,West,261,0.0,0.0,49,0.00,,,0.00,Wunderground v.1.12,2013-04-26 00:45:00,
2013-04-25 21:15:00,40.1,25.6,29.74,West,261,0.0,0.0,56,0.00,,,0.00,Wunderground v.1.12,2013-04-26 01:15:00,
2013-04-25 21:45:00,38.7,26.8,29.74,West,261,0.0,0.0,62,0.00,,,0.00,Wunderground v.1.12,2013-04-26 01:45:00,
2013-04-25 22:15:00,37.9,24.8,29.75,West,260,0.0,0.0,59,0.00,,,0.00,Wunderground v.1.12,2013-04-26 02:15:00,
2013-04-25 22:45:00,37.0,24.8,29.74,West,261,0.0,0.0,61,0.00,,,0.00,Wunderground v.1.12,2013-04-26 02:45:00,
2013-04-25 23:15:00,38.0,25.7,29.75,West,261,0.0,0.0,61,0.00,,,0.00,Wunderground v.1.12,2013-04-26 03:15:00,
2013-04-25 23:45:00,38.9,27.0,29.76,West,260,0.0,0.0,62,0.00,,,0.00,Wunderground v.1.12,2013-04-26 03:45:00,